Time,TemperatureF,DewpointF,PressureIn,WindDirection,WindDirectionDegrees,WindSpeedMPH,WindSpeedGustMPH,Humidity,HourlyPrecipIn,Conditions,Clouds,dailyrainin,SoftwareType,DateUTC
2013-05-07 00:03:00,57.5,49.7,29.91,SSW,198,8.0,9.0,75,0.00,,---,0.00,VWS V14.00,2013-05-07 07:03:00,
2013-05-07 00:08:00,57.3,49.5,29.91,South,170,5.0,9.0,75,0.00,,---,0.00,VWS V14.00,2013-05-07 07:08:00,
2013-05-07 00:13:00,57.1,49.6,29.92,SW,227,4.0,9.0,76,0.00,,---,0.00,VWS V14.00,2013-05-07 07:13:00,
2013-05-07 00:18:00,56.9,49.4,29.92,SSW,209,3.0,9.0,76,0.00,,---,0.00,VWS V14.00,2013-05-07 07:18:00,
2013-05-07 00:23:00,56.7,49.9,29.92,South,184,6.0,9.0,78,0.00,,---,0.00,VWS V14.00,2013-05-07 07:23:00,
2013-05-07 00:28:00,56.6,49.5,29.92,SE,146,9.0,12.0,77,0.00,,---,0.00,VWS V14.00,2013-05-07 07:28:00,
2013-05-07 00:33:00,56.4,49.3,29.92,South,186,4.0,7.0,77,0.00,,---,0.00,VWS V14.00,2013-05-07 07:33:00,
2013-05-07 00:38:00,56.2,49.8,29.92,South,169,5.0,8.0,79,0.00,,---,0.00,VWS V14.00,2013-05-07 07:38:00,
2013-05-07 00:43:00,56.0,49.2,29.93,SSE,164,6.0,8.0,78,0.00,,---,0.00,VWS V14.00,2013-05-07 07:43:00,
2013-05-07 00:48:00,55.8,49.0,29.93,SSE,157,5.0,8.0,78,0.00,,---,0.00,VWS V14.00,2013-05-07 07:48:00,
2013-05-07 00:53:00,55.6,49.2,29.93,SSE,162,5.0,8.0,79,0.00,,---,0.00,VWS V14.00,2013-05-07 07:53:00,
2013-05-07 00:58:00,55.5,49.1,29.93,SSE,159,5.0,10.0,79,0.00,,---,0.00,VWS V14.00,2013-05-07 07:58:00,
2013-05-07 01:03:00,55.3,48.9,29.94,South,170,7.0,7.0,79,0.00,,---,0.00,VWS V14.00,2013-05-07 08:03:00,
2013-05-07 01:08:00,55.2,49.2,29.94,SSW,201,6.0,9.0,80,0.00,,---,0.00,VWS V14.00,2013-05-07 08:08:00,
2013-05-07 01:13:00,55.1,49.0,29.94,South,177,5.0,9.0,80,0.00,,---,0.00,VWS V14.00,2013-05-07 08:13:00,
2013-05-07 01:18:00,55.0,49.0,29.93,South,169,4.0,9.0,80,0.00,,---,0.00,VWS V14.00,2013-05-07 08:18:00,
2013-05-07 01:23:00,55.0,49.0,29.93,SSE,163,6.0,10.0,80,0.00,,---,0.00,VWS V14.00,2013-05-07 08:23:00,
2013-05-07 01:28:00,55.0,49.0,29.93,SW,215,3.0,10.0,80,0.00,,---,0.00,VWS V14.00,2013-05-07 08:28:00,
2013-05-07 01:33:00,55.0,49.0,29.93,South,183,4.0,6.0,80,0.00,,---,0.00,VWS V14.00,2013-05-07 08:33:00,
2013-05-07 01:38:00,54.8,48.8,29.93,SSW,196,2.0,7.0,80,0.00,,---,0.00,VWS V14.00,2013-05-07 08:38:00,
2013-05-07 01:43:00,54.6,48.9,29.93,SSE,167,2.0,7.0,81,0.00,,---,0.00,VWS V14.00,2013-05-07 08:43:00,
2013-05-07 01:48:00,54.4,48.7,29.93,South,189,3.0,7.0,81,0.00,,---,0.00,VWS V14.00,2013-05-07 08:48:00,
2013-05-07 01:53:00,54.4,48.7,29.93,SW,221,4.0,7.0,81,0.00,,---,0.00,VWS V14.00,2013-05-07 08:53:00,
2013-05-07 01:58:00,54.2,48.5,29.93,SSE,157,5.0,7.0,81,0.00,,---,0.00,VWS V14.00,2013-05-07 08:58:00,
2013-05-07 02:03:00,54.2,48.5,29.93,South,169,2.0,4.0,81,0.00,,---,0.00,VWS V14.00,2013-05-07 09:03:00,
2013-05-07 02:08:00,54.1,49.1,29.93,South,173,1.0,5.0,83,0.00,,---,0.00,VWS V14.00,2013-05-07 09:08:00,
2013-05-07 02:13:00,54.0,49.0,29.93,South,169,2.0,6.0,83,0.00,,---,0.00,VWS V14.00,2013-05-07 09:13:00,
2013-05-07 02:18:00,53.9,48.5,29.93,South,178,2.0,6.0,82,0.00,,---,0.00,VWS V14.00,2013-05-07 09:18:00,
2013-05-07 02:23:00,53.8,48.4,29.93,SSW,199,3.0,6.0,82,0.00,,---,0.00,VWS V14.00,2013-05-07 09:23:00,
2013-05-07 02:28:00,53.7,48.3,29.93,South,176,2.0,6.0,82,0.00,,---,0.00,VWS V14.00,2013-05-07 09:28:00,
2013-05-07 02:33:00,53.6,48.6,29.93,SSE,153,2.0,2.0,83,0.00,,---,0.00,VWS V14.00,2013-05-07 09:33:00,
2013-05-07 02:38:00,53.3,48.3,29.93,SSE,157,2.0,4.0,83,0.00,,---,0.00,VWS V14.00,2013-05-07 09:38:00,
2013-05-07 02:43:00,53.0,48.0,29.93,SE,139,2.0,4.0,83,0.00,,---,0.00,VWS V14.00,2013-05-07 09:43:00,
2013-05-07 02:48:00,52.8,48.1,29.93,SE,136,1.0,5.0,84,0.00,,---,0.00,VWS V14.00,2013-05-07 09:48:00,
2013-05-07 02:53:00,52.6,47.9,29.93,SSE,158,1.0,5.0,84,0.00,,---,0.00,VWS V14.00,2013-05-07 09:53:00,
2013-05-07 02:58:00,52.4,48.0,29.93,SSE,159,2.0,5.0,85,0.00,,---,0.00,VWS V14.00,2013-05-07 09:58:00,
2013-05-07 03:08:00,52.1,47.7,29.93,SE,140,1.0,4.0,85,0.00,,---,0.00,VWS V14.00,2013-05-07 10:08:00,
2013-05-07 03:13:00,51.9,47.8,29.93,SE,140,1.0,4.0,86,0.00,,---,0.00,VWS V14.00,2013-05-07 10:13:00,
2013-05-07 03:18:00,51.8,47.8,29.93,SE,141,0.0,4.0,86,0.00,,---,0.00,VWS V14.00,2013-05-07 10:18:00,
2013-05-07 03:31:00,51.6,47.9,29.93,South,188,0.0,4.0,87,0.00,,---,0.00,VWS V14.00,2013-05-07 10:31:00,
2013-05-07 03:36:00,51.6,47.9,29.93,SSE,150,0.0,2.0,87,0.00,,---,0.00,VWS V14.00,2013-05-07 10:36:00,
2013-05-07 03:41:00,51.7,48.3,29.93,SSE,150,0.0,2.0,88,0.00,,---,0.00,VWS V14.00,2013-05-07 10:41:00,
2013-05-07 03:46:00,51.7,48.0,29.93,SSE,150,1.0,4.0,87,0.00,,---,0.00,VWS V14.00,2013-05-07 10:46:00,
2013-05-07 03:51:00,51.5,47.8,29.93,SSE,152,4.0,4.0,87,0.00,,---,0.00,VWS V14.00,2013-05-07 10:51:00,
2013-05-07 03:56:00,51.4,47.7,29.93,SE,146,2.0,4.0,87,0.00,,---,0.00,VWS V14.00,2013-05-07 10:56:00,
2013-05-07 04:01:00,51.2,47.5,29.94,SE,138,1.0,4.0,87,0.00,,---,0.00,VWS V14.00,2013-05-07 11:01:00,
2013-05-07 04:06:00,51.0,47.3,29.93,SE,138,2.0,2.0,87,0.00,,---,0.00,VWS V14.00,2013-05-07 11:06:00,
2013-05-07 04:11:00,50.9,47.5,29.93,SE,136,1.0,2.0,88,0.00,,---,0.00,VWS V14.00,2013-05-07 11:11:00,
2013-05-07 04:16:00,50.6,46.9,29.93,SE,136,2.0,4.0,87,0.00,,---,0.00,VWS V14.00,2013-05-07 11:16:00,
2013-05-07 04:21:00,50.5,47.4,29.93,SSE,155,2.0,4.0,89,0.00,,---,0.00,VWS V14.00,2013-05-07 11:21:00,
2013-05-07 04:26:00,50.4,47.3,29.93,SSE,155,1.0,4.0,89,0.00,,---,0.00,VWS V14.00,2013-05-07 11:26:00,
2013-05-07 04:31:00,50.3,46.9,29.93,SSE,155,1.0,4.0,88,0.00,,---,0.00,VWS V14.00,2013-05-07 11:31:00,
2013-05-07 04:36:00,50.2,47.4,29.93,SSE,155,1.0,2.0,90,0.00,,---,0.00,VWS V14.00,2013-05-07 11:36:00,
2013-05-07 04:41:00,50.4,47.6,29.94,SSE,155,2.0,2.0,90,0.00,,---,0.00,VWS V14.00,2013-05-07 11:41:00,
2013-05-07 04:46:00,50.5,47.7,29.94,SSE,155,1.0,2.0,90,0.00,,---,0.00,VWS V14.00,2013-05-07 11:46:00,
2013-05-07 04:51:00,50.5,47.7,29.94,SSE,158,1.0,2.0,90,0.00,,---,0.00,VWS V14.00,2013-05-07 11:51:00,
2013-05-07 04:56:00,50.5,47.7,29.94,SSE,158,2.0,2.0,90,0.00,,---,0.00,VWS V14.00,2013-05-07 11:56:00,
2013-05-07 05:01:00,50.3,47.2,29.94,SSE,158,1.0,2.0,89,0.00,,---,0.00,VWS V14.00,2013-05-07 12:01:00,
2013-05-07 05:06:00,50.4,47.6,29.94,SSE,158,1.0,2.0,90,0.00,,---,0.00,VWS V14.00,2013-05-07 12:06:00,
2013-05-07 05:11:00,50.4,47.6,29.94,SSE,158,1.0,2.0,90,0.00,,---,0.00,VWS V14.00,2013-05-07 12:11:00,
2013-05-07 05:16:00,50.5,47.7,29.95,SSE,158,2.0,2.0,90,0.00,,---,0.00,VWS V14.00,2013-05-07 12:16:00,
2013-05-07 05:21:00,50.4,47.6,29.95,SSE,158,1.0,2.0,90,0.00,,---,0.00,VWS V14.00,2013-05-07 12:21:00,
2013-05-07 05:26:00,50.3,47.5,29.95,SSE,158,1.0,2.0,90,0.00,,---,0.00,VWS V14.00,2013-05-07 12:26:00,
2013-05-07 05:31:00,50.2,47.4,29.95,SSE,158,2.0,2.0,90,0.00,,---,0.00,VWS V14.00,2013-05-07 12:31:00,
2013-05-07 05:36:00,50.2,47.4,29.95,South,190,0.0,2.0,90,0.00,,---,0.00,VWS V14.00,2013-05-07 12:36:00,
2013-05-07 05:41:00,50.2,47.4,29.95,South,184,0.0,2.0,90,0.00,,---,0.00,VWS V14.00,2013-05-07 12:41:00,
2013-05-07 05:46:00,50.1,47.3,29.95,South,184,0.0,2.0,90,0.00,,---,0.00,VWS V14.00,2013-05-07 12:46:00,
2013-05-07 05:51:00,50.1,47.6,29.95,South,184,0.0,2.0,91,0.00,,---,0.00,VWS V14.00,2013-05-07 12:51:00,
2013-05-07 05:56:00,50.1,47.6,29.95,South,184,0.0,2.0,91,0.00,,---,0.00,VWS V14.00,2013-05-07 12:56:00,
2013-05-07 06:01:00,50.0,47.2,29.95,South,184,0.0,2.0,90,0.00,,---,0.00,VWS V14.00,2013-05-07 13:01:00,
2013-05-07 06:06:00,49.8,47.3,29.96,South,184,0.0,2.0,91,0.00,,---,0.00,VWS V14.00,2013-05-07 13:06:00,
2013-05-07 06:11:00,49.8,47.3,29.96,South,184,0.0,2.0,91,0.00,,---,0.00,VWS V14.00,2013-05-07 13:11:00,
2013-05-07 06:16:00,49.8,47.6,29.96,South,184,0.0,2.0,92,0.00,,---,0.00,VWS V14.00,2013-05-07 13:16:00,
2013-05-07 06:21:00,49.6,47.1,29.96,South,184,0.0,2.0,91,0.00,,---,0.00,VWS V14.00,2013-05-07 13:21:00,
2013-05-07 06:26:00,49.7,47.5,29.96,South,184,1.0,2.0,92,0.00,,---,0.00,VWS V14.00,2013-05-07 13:26:00,
2013-05-07 06:31:00,49.8,47.6,29.96,South,184,0.0,2.0,92,0.00,,---,0.00,VWS V14.00,2013-05-07 13:31:00,
2013-05-07 06:36:00,49.8,47.6,29.96,South,184,1.0,1.0,92,0.00,,---,0.00,VWS V14.00,2013-05-07 13:36:00,
2013-05-07 06:41:00,49.9,47.7,29.96,South,184,0.0,1.0,92,0.00,,---,0.00,VWS V14.00,2013-05-07 13:41:00,
2013-05-07 06:46:00,49.9,47.7,29.96,South,184,1.0,2.0,92,0.00,,---,0.00,VWS V14.00,2013-05-07 13:46:00,
2013-05-07 06:51:00,50.0,47.8,29.96,South,184,1.0,2.0,92,0.00,,---,0.00,VWS V14.00,2013-05-07 13:51:00,
2013-05-07 06:57:00,50.1,47.9,29.97,South,169,0.0,2.0,92,0.00,,---,0.00,VWS V14.00,2013-05-07 13:57:00,
2013-05-07 07:02:00,50.2,48.0,29.97,South,172,1.0,2.0,92,0.00,,---,0.00,VWS V14.00,2013-05-07 14:02:00,
2013-05-07 07:07:00,50.4,48.2,29.97,South,172,0.0,2.0,92,0.00,,---,0.00,VWS V14.00,2013-05-07 14:07:00,
2013-05-07 07:12:00,50.6,48.1,29.97,SSW,205,1.0,2.0,91,0.00,,---,0.00,VWS V14.00,2013-05-07 14:12:00,
2013-05-07 07:17:00,50.8,48.3,29.97,SE,139,1.0,3.0,91,0.00,,---,0.00,VWS V14.00,2013-05-07 14:17:00,
2013-05-07 07:22:00,50.9,48.1,29.97,South,169,0.0,3.0,90,0.00,,---,0.00,VWS V14.00,2013-05-07 14:22:00,
2013-05-07 07:27:00,51.2,48.7,29.97,SSW,198,0.0,3.0,91,0.00,,---,0.00,VWS V14.00,2013-05-07 14:27:00,
2013-05-07 07:32:00,51.4,48.9,29.97,South,175,1.0,4.0,91,0.00,,---,0.00,VWS V14.00,2013-05-07 14:32:00,
2013-05-07 07:37:00,51.6,48.8,29.97,South,187,3.0,5.0,90,0.00,,---,0.00,VWS V14.00,2013-05-07 14:37:00,
2013-05-07 07:42:00,51.7,48.3,29.97,South,182,3.0,5.0,88,0.00,,---,0.00,VWS V14.00,2013-05-07 14:42:00,
2013-05-07 07:47:00,51.9,48.5,29.97,SSW,200,1.0,5.0,88,0.00,,---,0.00,VWS V14.00,2013-05-07 14:47:00,
2013-05-07 07:52:00,52.1,48.7,29.98,SSW,202,3.0,5.0,88,0.00,,---,0.00,VWS V14.00,2013-05-07 14:52:00,
2013-05-07 07:57:00,52.3,48.5,29.97,SSE,162,4.0,5.0,87,0.00,,---,0.00,VWS V14.00,2013-05-07 14:57:00,
2013-05-07 08:02:00,52.4,48.7,29.97,SE,145,5.0,5.0,87,0.00,,---,0.00,VWS V14.00,2013-05-07 15:02:00,
2013-05-07 08:07:00,52.6,48.8,29.98,SSE,154,2.0,5.0,87,0.00,,---,0.00,VWS V14.00,2013-05-07 15:07:00,
2013-05-07 08:12:00,52.7,48.6,29.98,South,189,2.0,7.0,86,0.00,,---,0.00,VWS V14.00,2013-05-07 15:12:00,
2013-05-07 08:17:00,52.8,48.7,29.98,South,175,4.0,7.0,86,0.00,,---,0.00,VWS V14.00,2013-05-07 15:17:00,
2013-05-07 08:22:00,53.1,49.0,29.98,SSE,166,5.0,7.0,86,0.00,,---,0.00,VWS V14.00,2013-05-07 15:22:00,
2013-05-07 08:27:00,53.3,49.2,29.98,SSW,199,3.0,7.0,86,0.00,,---,0.00,VWS V14.00,2013-05-07 15:27:00,
2013-05-07 08:32:00,53.6,49.5,29.98,SSE,148,2.0,7.0,86,0.00,,---,0.00,VWS V14.00,2013-05-07 15:32:00,
2013-05-07 08:37:00,53.7,49.3,29.98,SSE,164,2.0,6.0,85,0.00,,---,0.00,VWS V14.00,2013-05-07 15:37:00,
2013-05-07 08:42:00,53.8,49.4,29.98,South,175,4.0,6.0,85,0.00,,---,0.00,VWS V14.00,2013-05-07 15:42:00,
2013-05-07 08:47:00,54.0,49.3,29.98,South,178,4.0,6.0,84,0.00,,---,0.00,VWS V14.00,2013-05-07 15:47:00,
2013-05-07 08:52:00,54.1,49.4,29.98,South,186,6.0,7.0,84,0.00,,---,0.00,VWS V14.00,2013-05-07 15:52:00,
2013-05-07 08:57:00,54.2,49.2,29.98,SSW,205,4.0,7.0,83,0.00,,---,0.00,VWS V14.00,2013-05-07 15:57:00,
2013-05-07 09:02:00,54.4,49.3,29.98,South,187,3.0,3.0,83,0.00,,---,0.00,VWS V14.00,2013-05-07 16:02:00,
2013-05-07 09:07:00,54.8,49.7,29.98,SSE,158,2.0,6.0,83,0.00,,---,0.00,VWS V14.00,2013-05-07 16:07:00,
2013-05-07 09:12:00,55.4,50.0,29.98,SSW,202,3.0,6.0,82,0.00,,---,0.00,VWS V14.00,2013-05-07 16:12:00,
2013-05-07 09:17:00,55.7,50.0,29.98,South,183,1.0,6.0,81,0.00,,---,0.00,VWS V14.00,2013-05-07 16:17:00,
2013-05-07 09:22:00,55.9,49.8,29.98,SSE,157,6.0,6.0,80,0.00,,---,0.00,VWS V14.00,2013-05-07 16:22:00,
2013-05-07 09:27:00,56.1,50.4,29.98,SSE,163,5.0,6.0,81,0.00,,---,0.00,VWS V14.00,2013-05-07 16:27:00,
2013-05-07 09:32:00,56.1,50.0,29.98,SSE,147,6.0,8.0,80,0.00,,---,0.00,VWS V14.00,2013-05-07 16:32:00,
2013-05-07 09:37:00,56.3,50.5,29.97,SE,142,4.0,9.0,81,0.00,,---,0.00,VWS V14.00,2013-05-07 16:37:00,
2013-05-07 09:42:00,56.8,50.0,29.97,SE,142,7.0,9.0,78,0.00,,---,0.00,VWS V14.00,2013-05-07 16:42:00,
2013-05-07 09:47:00,56.9,50.5,29.97,SSE,161,2.0,9.0,79,0.00,,---,0.00,VWS V14.00,2013-05-07 16:47:00,
2013-05-07 09:52:00,57.4,51.0,29.97,South,180,2.0,9.0,79,0.00,,---,0.00,VWS V14.00,2013-05-07 16:52:00,
2013-05-07 09:57:00,57.6,51.1,29.97,SE,142,7.0,9.0,79,0.00,,---,0.00,VWS V14.00,2013-05-07 16:57:00,
2013-05-07 10:02:00,57.7,50.2,29.97,SSE,162,4.0,4.0,76,0.00,,---,0.00,VWS V14.00,2013-05-07 17:02:00,
2013-05-07 10:07:00,58.0,50.8,29.97,SW,220,3.0,6.0,77,0.00,,---,0.00,VWS V14.00,2013-05-07 17:07:00,
2013-05-07 10:12:00,58.5,51.0,29.97,SSW,192,3.0,8.0,76,0.00,,---,0.00,VWS V14.00,2013-05-07 17:12:00,
2013-05-07 10:17:00,58.7,51.2,29.97,SW,219,2.0,8.0,76,0.00,,---,0.00,VWS V14.00,2013-05-07 17:17:00,
2013-05-07 10:22:00,59.0,51.1,29.97,SSE,161,9.0,9.0,75,0.00,,---,0.00,VWS V14.00,2013-05-07 17:22:00,
2013-05-07 10:27:00,59.1,50.8,29.97,SE,131,1.0,9.0,74,0.00,,---,0.00,VWS V14.00,2013-05-07 17:27:00,
2013-05-07 10:32:00,59.3,51.4,29.97,SSE,153,5.0,5.0,75,0.00,,---,0.00,VWS V14.00,2013-05-07 17:32:00,
2013-05-07 10:37:00,59.6,51.3,29.97,SSE,155,1.0,6.0,74,0.00,,---,0.00,VWS V14.00,2013-05-07 17:37:00,
2013-05-07 10:42:00,60.2,51.5,29.97,SE,130,7.0,7.0,73,0.00,,---,0.00,VWS V14.00,2013-05-07 17:42:00,
2013-05-07 10:47:00,60.6,51.2,29.97,South,184,2.0,9.0,71,0.00,,---,0.00,VWS V14.00,2013-05-07 17:47:00,
2013-05-07 10:52:00,60.6,50.8,29.97,SW,217,5.0,12.0,70,0.00,,---,0.00,VWS V14.00,2013-05-07 17:52:00,
2013-05-07 10:57:00,60.8,50.6,29.97,SSW,198,1.0,12.0,69,0.00,,---,0.00,VWS V14.00,2013-05-07 17:57:00,
2013-05-07 11:02:00,61.3,51.1,29.97,SSE,157,6.0,6.0,69,0.00,,---,0.00,VWS V14.00,2013-05-07 18:02:00,
2013-05-07 11:07:00,61.8,51.5,29.97,SSW,200,6.0,9.0,69,0.00,,---,0.00,VWS V14.00,2013-05-07 18:07:00,
2013-05-07 11:12:00,61.9,50.4,29.97,South,184,4.0,11.0,66,0.00,,---,0.00,VWS V14.00,2013-05-07 18:12:00,
2013-05-07 11:17:00,62.0,50.9,29.97,SSE,161,8.0,11.0,67,0.00,,---,0.00,VWS V14.00,2013-05-07 18:17:00,
2013-05-07 11:22:00,62.1,51.0,29.97,SSE,161,2.0,11.0,67,0.00,,---,0.00,VWS V14.00,2013-05-07 18:22:00,
2013-05-07 11:28:00,62.8,51.7,29.97,SSW,208,5.0,11.0,67,0.00,,---,0.00,VWS V14.00,2013-05-07 18:28:00,
2013-05-07 11:32:00,63.1,51.6,29.97,South,182,6.0,8.0,66,0.00,,---,0.00,VWS V14.00,2013-05-07 18:32:00,
2013-05-07 11:38:00,63.2,50.8,29.97,South,184,4.0,8.0,64,0.00,,---,0.00,VWS V14.00,2013-05-07 18:38:00,
2013-05-07 11:43:00,63.3,50.5,29.97,South,176,4.0,8.0,63,0.00,,---,0.00,VWS V14.00,2013-05-07 18:43:00,
2013-05-07 11:48:00,63.4,51.4,29.97,SSW,200,5.0,8.0,65,0.00,,---,0.00,VWS V14.00,2013-05-07 18:48:00,
2013-05-07 11:53:00,63.6,50.8,29.97,SSW,192,4.0,9.0,63,0.00,,---,0.00,VWS V14.00,2013-05-07 18:53:00,
2013-05-07 11:58:00,63.8,50.1,29.97,SSW,195,4.0,12.0,61,0.00,,---,0.00,VWS V14.00,2013-05-07 18:58:00,
2013-05-07 12:03:00,64.1,50.8,29.96,SSE,155,4.0,9.0,62,0.00,,---,0.00,VWS V14.00,2013-05-07 19:03:00,
2013-05-07 12:08:00,64.3,51.0,29.97,South,177,5.0,9.0,62,0.00,,---,0.00,VWS V14.00,2013-05-07 19:08:00,
2013-05-07 12:13:00,64.4,51.1,29.97,SSW,206,3.0,10.0,62,0.00,,---,0.00,VWS V14.00,2013-05-07 19:13:00,
2013-05-07 12:18:00,64.5,50.8,29.96,SE,140,5.0,10.0,61,0.00,,---,0.00,VWS V14.00,2013-05-07 19:18:00,
2013-05-07 12:23:00,64.9,50.7,29.96,SE,136,6.0,10.0,60,0.00,,---,0.00,VWS V14.00,2013-05-07 19:23:00,
2013-05-07 12:28:00,64.8,51.0,29.96,SE,136,5.0,10.0,61,0.00,,---,0.00,VWS V14.00,2013-05-07 19:28:00,
2013-05-07 12:33:00,64.9,49.8,29.96,South,179,4.0,8.0,58,0.00,,---,0.00,VWS V14.00,2013-05-07 19:33:00,
2013-05-07 12:38:00,65.0,51.2,29.96,SE,137,5.0,8.0,61,0.00,,---,0.00,VWS V14.00,2013-05-07 19:38:00,
2013-05-07 12:43:00,65.3,50.6,29.96,ESE,123,5.0,8.0,59,0.00,,---,0.00,VWS V14.00,2013-05-07 19:43:00,
2013-05-07 12:48:00,65.4,51.6,29.96,South,188,6.0,8.0,61,0.00,,---,0.00,VWS V14.00,2013-05-07 19:48:00,
2013-05-07 12:53:00,65.5,51.3,29.96,SSE,161,5.0,10.0,60,0.00,,---,0.00,VWS V14.00,2013-05-07 19:53:00,
2013-05-07 12:58:00,65.7,52.8,29.95,SSE,166,0.0,10.0,63,0.00,,---,0.00,VWS V14.00,2013-05-07 19:58:00,
2013-05-07 13:03:00,66.3,52.0,29.95,SSE,150,4.0,7.0,60,0.00,,---,0.00,VWS V14.00,2013-05-07 20:03:00,
2013-05-07 13:08:00,66.3,52.5,29.95,SSE,149,2.0,7.0,61,0.00,,---,0.00,VWS V14.00,2013-05-07 20:08:00,
2013-05-07 13:13:00,66.6,52.8,29.95,SSW,201,3.0,7.0,61,0.00,,---,0.00,VWS V14.00,2013-05-07 20:13:00,
2013-05-07 13:18:00,66.8,51.6,29.95,South,182,2.0,7.0,58,0.00,,---,0.00,VWS V14.00,2013-05-07 20:18:00,
2013-05-07 13:23:00,66.9,51.7,29.95,SSE,165,6.0,8.0,58,0.00,,---,0.00,VWS V14.00,2013-05-07 20:23:00,
2013-05-07 13:28:00,67.0,52.2,29.95,SE,126,1.0,8.0,59,0.00,,---,0.00,VWS V14.00,2013-05-07 20:28:00,
2013-05-07 13:33:00,67.2,51.9,29.95,South,172,5.0,6.0,58,0.00,,---,0.00,VWS V14.00,2013-05-07 20:33:00,
2013-05-07 13:38:00,67.4,51.2,29.95,SSW,207,4.0,9.0,56,0.00,,---,0.00,VWS V14.00,2013-05-07 20:38:00,
2013-05-07 13:43:00,67.6,51.4,29.95,SSE,147,2.0,9.0,56,0.00,,---,0.00,VWS V14.00,2013-05-07 20:43:00,
2013-05-07 13:48:00,67.5,51.8,29.94,South,172,7.0,9.0,57,0.00,,---,0.00,VWS V14.00,2013-05-07 20:48:00,
2013-05-07 13:53:00,67.7,51.9,29.94,SW,216,2.0,9.0,57,0.00,,---,0.00,VWS V14.00,2013-05-07 20:53:00,
2013-05-07 13:58:00,67.7,51.9,29.94,SE,142,2.0,9.0,57,0.00,,---,0.00,VWS V14.00,2013-05-07 20:58:00,
2013-05-07 14:03:00,68.0,52.2,29.94,East,86,0.0,1.0,57,0.00,,---,0.00,VWS V14.00,2013-05-07 21:03:00,
2013-05-07 14:08:00,68.6,52.3,29.94,WSW,249,3.0,6.0,56,0.00,,---,0.00,VWS V14.00,2013-05-07 21:08:00,
2013-05-07 14:13:00,68.9,53.5,29.94,SSE,151,1.0,7.0,58,0.00,,---,0.00,VWS V14.00,2013-05-07 21:13:00,
2013-05-07 14:18:00,69.3,54.4,29.94,WSW,247,2.0,7.0,59,0.00,,---,0.00,VWS V14.00,2013-05-07 21:18:00,
2013-05-07 14:23:00,69.7,54.3,29.94,West,262,2.0,7.0,58,0.00,,---,0.00,VWS V14.00,2013-05-07 21:23:00,
2013-05-07 14:28:00,69.9,54.5,29.93,East,96,4.0,7.0,58,0.00,,---,0.00,VWS V14.00,2013-05-07 21:28:00,
2013-05-07 14:33:00,70.0,53.6,29.93,South,185,2.0,5.0,56,0.00,,---,0.00,VWS V14.00,2013-05-07 21:33:00,
2013-05-07 14:38:00,69.7,53.3,29.93,SE,143,6.0,8.0,56,0.00,,---,0.00,VWS V14.00,2013-05-07 21:38:00,
2013-05-07 14:43:00,69.6,53.2,29.93,WSW,238,2.0,8.0,56,0.00,,---,0.00,VWS V14.00,2013-05-07 21:43:00,
2013-05-07 14:48:00,70.1,53.7,29.93,SSE,148,2.0,8.0,56,0.00,,---,0.00,VWS V14.00,2013-05-07 21:48:00,
2013-05-07 14:53:00,70.6,55.1,29.93,SE,143,1.0,8.0,58,0.00,,---,0.00,VWS V14.00,2013-05-07 21:53:00,
2013-05-07 14:58:00,70.8,53.3,29.93,SSW,194,1.0,8.0,54,0.00,,---,0.00,VWS V14.00,2013-05-07 21:58:00,
2013-05-07 15:03:00,71.2,53.2,29.93,SSW,198,4.0,7.0,53,0.00,,---,0.00,VWS V14.00,2013-05-07 22:03:00,
2013-05-07 15:08:00,71.1,53.1,29.93,SE,132,5.0,7.0,53,0.00,,---,0.00,VWS V14.00,2013-05-07 22:08:00,
2013-05-07 15:13:00,70.9,54.0,29.93,NE,40,1.0,7.0,55,0.00,,---,0.00,VWS V14.00,2013-05-07 22:13:00,
2013-05-07 15:18:00,71.3,54.3,29.92,SSE,150,1.0,7.0,55,0.00,,---,0.00,VWS V14.00,2013-05-07 22:18:00,
2013-05-07 15:23:00,71.8,53.8,29.92,SSE,168,0.0,7.0,53,0.00,,---,0.00,VWS V14.00,2013-05-07 22:23:00,
2013-05-07 15:28:00,71.8,53.8,29.92,SSW,197,3.0,7.0,53,0.00,,---,0.00,VWS V14.00,2013-05-07 22:28:00,
2013-05-07 15:33:00,71.4,52.9,29.92,SSE,159,4.0,6.0,52,0.00,,---,0.00,VWS V14.00,2013-05-07 22:33:00,
2013-05-07 15:38:00,71.2,53.2,29.92,South,173,1.0,6.0,53,0.00,,---,0.00,VWS V14.00,2013-05-07 22:38:00,
2013-05-07 15:43:00,71.7,54.7,29.92,South,176,0.0,6.0,55,0.00,,---,0.00,VWS V14.00,2013-05-07 22:43:00,
2013-05-07 15:49:00,72.0,52.4,29.92,SSW,197,3.0,7.0,50,0.00,,---,0.00,VWS V14.00,2013-05-07 22:49:00,
2013-05-07 15:54:00,72.1,54.6,29.91,NE,49,3.0,7.0,54,0.00,,---,0.00,VWS V14.00,2013-05-07 22:54:00,
2013-05-07 15:59:00,72.6,55.5,29.91,West,274,1.0,7.0,55,0.00,,---,0.00,VWS V14.00,2013-05-07 22:59:00,
2013-05-07 16:04:00,73.2,54.0,29.92,NNE,24,0.0,3.0,51,0.00,,---,0.00,VWS V14.00,2013-05-07 23:04:00,
2013-05-07 16:09:00,73.2,52.9,29.91,SSE,159,0.0,7.0,49,0.00,,---,0.00,VWS V14.00,2013-05-07 23:09:00,
2013-05-07 16:14:00,73.0,54.4,29.91,SSE,160,2.0,7.0,52,0.00,,---,0.00,VWS V14.00,2013-05-07 23:14:00,
2013-05-07 16:19:00,73.6,53.8,29.91,West,259,1.0,7.0,50,0.00,,---,0.00,VWS V14.00,2013-05-07 23:19:00,
2013-05-07 16:24:00,73.9,51.8,29.91,SSE,153,1.0,7.0,46,0.00,,---,0.00,VWS V14.00,2013-05-07 23:24:00,
2013-05-07 16:29:00,73.7,52.2,29.91,South,172,2.0,7.0,47,0.00,,---,0.00,VWS V14.00,2013-05-07 23:29:00,
2013-05-07 16:34:00,73.9,51.8,29.91,SE,134,1.0,4.0,46,0.00,,---,0.00,VWS V14.00,2013-05-07 23:34:00,
2013-05-07 16:39:00,74.0,51.9,29.91,SSE,168,7.0,7.0,46,0.00,,---,0.00,VWS V14.00,2013-05-07 23:39:00,
2013-05-07 16:44:00,73.8,52.3,29.91,South,188,4.0,7.0,47,0.00,,---,0.00,VWS V14.00,2013-05-07 23:44:00,
2013-05-07 16:49:00,72.2,54.7,29.91,SSE,153,2.0,7.0,54,0.00,,---,0.00,VWS V14.00,2013-05-07 23:49:00,
2013-05-07 16:54:00,70.5,54.1,29.91,SSW,200,4.0,7.0,56,0.01,,---,0.01,VWS V14.00,2013-05-07 23:54:00,
2013-05-07 16:59:00,69.7,55.7,29.91,SSW,194,1.0,7.0,61,0.01,,---,0.01,VWS V14.00,2013-05-07 23:59:00,
2013-05-07 17:04:00,69.0,55.0,29.91,South,179,1.0,4.0,61,0.02,,---,0.02,VWS V14.00,2013-05-08 00:04:00,
2013-05-07 17:09:00,69.4,53.5,29.91,North,360,1.0,4.0,57,0.03,,---,0.03,VWS V14.00,2013-05-08 00:09:00,
2013-05-07 17:14:00,71.0,54.5,29.91,NNW,327,0.0,4.0,56,0.03,,---,0.03,VWS V14.00,2013-05-08 00:14:00,
2013-05-07 17:19:00,71.9,53.9,29.91,NE,41,1.0,4.0,53,0.03,,---,0.03,VWS V14.00,2013-05-08 00:19:00,
2013-05-07 17:24:00,72.4,53.3,29.92,NW,319,1.0,4.0,51,0.03,,---,0.03,VWS V14.00,2013-05-08 00:24:00,
2013-05-07 17:29:00,72.9,53.2,29.92,WNW,298,1.0,4.0,50,0.03,,---,0.03,VWS V14.00,2013-05-08 00:29:00,
2013-05-07 17:34:00,73.3,53.0,29.92,NE,50,2.0,4.0,49,0.03,,---,0.03,VWS V14.00,2013-05-08 00:34:00,
2013-05-07 17:39:00,73.5,53.2,29.92,NW,322,2.0,4.0,49,0.03,,---,0.03,VWS V14.00,2013-05-08 00:39:00,
2013-05-07 17:44:00,73.3,53.0,29.92,WNW,300,2.0,5.0,49,0.03,,---,0.03,VWS V14.00,2013-05-08 00:44:00,
2013-05-07 17:49:00,73.3,55.2,29.92,SSW,200,2.0,5.0,53,0.03,,---,0.03,VWS V14.00,2013-05-08 00:49:00,
2013-05-07 17:54:00,72.9,55.8,29.92,SE,146,8.0,8.0,55,0.03,,---,0.03,VWS V14.00,2013-05-08 00:54:00,
2013-05-07 17:59:00,72.6,57.0,29.92,WNW,292,0.0,8.0,58,0.03,,---,0.03,VWS V14.00,2013-05-08 00:59:00,
2013-05-07 18:04:00,72.5,55.9,29.92,SSW,209,0.0,1.0,56,0.01,,---,0.03,VWS V14.00,2013-05-08 01:04:00,
2013-05-07 18:09:00,72.4,56.3,29.92,South,186,1.0,6.0,57,0.01,,---,0.03,VWS V14.00,2013-05-08 01:09:00,
2013-05-07 18:14:00,71.9,55.9,29.92,SSW,194,4.0,7.0,57,0.01,,---,0.03,VWS V14.00,2013-05-08 01:14:00,
2013-05-07 18:19:00,71.6,56.1,29.92,SSE,148,2.0,7.0,58,0.01,,---,0.03,VWS V14.00,2013-05-08 01:19:00,
2013-05-07 18:24:00,71.5,56.0,29.92,SW,225,1.0,7.0,58,0.01,,---,0.03,VWS V14.00,2013-05-08 01:24:00,
2013-05-07 18:29:00,71.5,56.4,29.93,South,186,1.0,7.0,59,0.01,,---,0.03,VWS V14.00,2013-05-08 01:29:00,
2013-05-07 18:34:00,71.2,56.2,29.93,SE,131,0.0,4.0,59,0.00,,---,0.03,VWS V14.00,2013-05-08 01:34:00,
2013-05-07 18:39:00,70.8,55.8,29.93,SE,129,0.0,4.0,59,0.00,,---,0.03,VWS V14.00,2013-05-08 01:39:00,
2013-05-07 18:44:00,70.4,55.4,29.93,SSE,159,2.0,4.0,59,0.00,,---,0.03,VWS V14.00,2013-05-08 01:44:00,
2013-05-07 18:49:00,70.1,55.1,29.93,SSE,159,1.0,4.0,59,0.00,,---,0.03,VWS V14.00,2013-05-08 01:49:00,
2013-05-07 18:54:00,69.6,55.1,29.93,SE,140,2.0,5.0,60,0.00,,---,0.03,VWS V14.00,2013-05-08 01:54:00,
2013-05-07 18:59:00,69.2,55.6,29.93,East,89,0.0,5.0,62,0.00,,---,0.03,VWS V14.00,2013-05-08 01:59:00,
2013-05-07 19:04:00,68.9,54.9,29.93,SSE,163,1.0,4.0,61,0.00,,---,0.03,VWS V14.00,2013-05-08 02:04:00,
2013-05-07 19:09:00,68.5,55.0,29.93,South,178,0.0,4.0,62,0.00,,---,0.03,VWS V14.00,2013-05-08 02:09:00,
2013-05-07 19:14:00,68.0,54.1,29.93,NNE,24,0.0,4.0,61,0.00,,---,0.03,VWS V14.00,2013-05-08 02:14:00,
2013-05-07 19:19:00,67.5,53.6,29.93,SE,127,0.0,4.0,61,0.00,,---,0.03,VWS V14.00,2013-05-08 02:19:00,
2013-05-07 19:24:00,67.0,53.6,29.93,SE,127,0.0,4.0,62,0.00,,---,0.03,VWS V14.00,2013-05-08 02:24:00,
2013-05-07 19:29:00,66.6,54.1,29.93,SE,134,1.0,4.0,64,0.00,,---,0.03,VWS V14.00,2013-05-08 02:29:00,
2013-05-07 19:34:00,65.9,53.8,29.94,SSE,165,0.0,2.0,65,0.00,,---,0.03,VWS V14.00,2013-05-08 02:34:00,
2013-05-07 19:39:00,65.5,53.8,29.94,SSE,167,0.0,2.0,66,0.00,,---,0.03,VWS V14.00,2013-05-08 02:39:00,
2013-05-07 19:44:00,65.0,53.8,29.94,SSE,167,1.0,2.0,67,0.00,,---,0.03,VWS V14.00,2013-05-08 02:44:00,
2013-05-07 19:49:00,64.4,52.8,29.94,South,180,3.0,5.0,66,0.00,,---,0.03,VWS V14.00,2013-05-08 02:49:00,
2013-05-07 19:54:00,63.6,52.5,29.95,SE,142,1.0,5.0,67,0.00,,---,0.03,VWS V14.00,2013-05-08 02:54:00,
2013-05-07 19:59:00,63.2,52.5,29.95,SE,143,1.0,5.0,68,0.00,,---,0.03,VWS V14.00,2013-05-08 02:59:00,
2013-05-07 20:04:00,62.8,52.5,29.95,SSE,147,0.0,2.0,69,0.00,,---,0.03,VWS V14.00,2013-05-08 03:04:00,
2013-05-07 20:09:00,62.3,52.0,29.95,SSE,148,0.0,4.0,69,0.00,,---,0.03,VWS V14.00,2013-05-08 03:09:00,
2013-05-07 20:14:00,61.9,51.6,29.95,SSE,147,1.0,4.0,69,0.00,,---,0.03,VWS V14.00,2013-05-08 03:14:00,
2013-05-07 20:20:00,61.4,51.2,29.95,South,182,1.0,4.0,69,0.00,,---,0.03,VWS V14.00,2013-05-08 03:20:00,
2013-05-07 20:25:00,60.9,51.1,29.96,SSE,156,0.0,4.0,70,0.00,,---,0.03,VWS V14.00,2013-05-08 03:25:00,
2013-05-07 20:30:00,60.5,51.1,29.96,SSE,166,1.0,4.0,71,0.00,,---,0.03,VWS V14.00,2013-05-08 03:30:00,
2013-05-07 20:35:00,60.0,50.6,29.96,South,169,0.0,2.0,71,0.00,,---,0.03,VWS V14.00,2013-05-08 03:35:00,
2013-05-07 20:40:00,59.8,50.8,29.96,SSE,162,1.0,2.0,72,0.00,,---,0.03,VWS V14.00,2013-05-08 03:40:00,
2013-05-07 20:45:00,59.5,50.1,29.97,SSE,163,0.0,2.0,71,0.00,,---,0.03,VWS V14.00,2013-05-08 03:45:00,
2013-05-07 20:50:00,59.2,49.8,29.97,SSE,163,0.0,2.0,71,0.00,,---,0.03,VWS V14.00,2013-05-08 03:50:00,
2013-05-07 20:55:00,58.9,49.5,29.97,SSE,163,0.0,2.0,71,0.00,,---,0.03,VWS V14.00,2013-05-08 03:55:00,
2013-05-07 21:00:00,58.6,50.3,29.97,South,185,0.0,4.0,74,0.00,,---,0.03,VWS V14.00,2013-05-08 04:00:00,
2013-05-07 21:01:00,58.5,50.2,29.97,South,185,0.0,4.0,74,0.00,,---,0.03,VWS V14.00,2013-05-08 04:01:00,
2013-05-07 21:06:00,58.2,50.3,29.98,South,181,2.0,2.0,75,0.00,,---,0.03,VWS V14.00,2013-05-08 04:06:00,
2013-05-07 21:11:00,57.9,49.7,29.98,South,181,1.0,2.0,74,0.00,,---,0.03,VWS V14.00,2013-05-08 04:11:00,
2013-05-07 21:16:00,57.6,50.1,29.98,South,173,1.0,3.0,76,0.00,,---,0.03,VWS V14.00,2013-05-08 04:16:00,
2013-05-07 21:21:00,57.3,49.5,29.99,South,181,2.0,4.0,75,0.00,,---,0.03,VWS V14.00,2013-05-08 04:21:00,
2013-05-07 21:26:00,57.0,49.5,29.99,South,190,3.0,4.0,76,0.00,,---,0.03,VWS V14.00,2013-05-08 04:26:00,
2013-05-07 21:31:00,56.7,49.2,30.00,South,188,2.0,4.0,76,0.00,,---,0.03,VWS V14.00,2013-05-08 04:31:00,
2013-05-07 21:36:00,56.5,49.4,30.00,South,189,1.0,3.0,77,0.00,,---,0.03,VWS V14.00,2013-05-08 04:36:00,
2013-05-07 21:41:00,56.2,48.8,30.00,SSW,200,1.0,4.0,76,0.00,,---,0.03,VWS V14.00,2013-05-08 04:41:00,
2013-05-07 21:46:00,56.0,48.9,30.01,South,171,1.0,4.0,77,0.00,,---,0.03,VWS V14.00,2013-05-08 04:46:00,
2013-05-07 21:51:00,55.8,49.0,30.01,SSE,166,1.0,4.0,78,0.00,,---,0.03,VWS V14.00,2013-05-08 04:51:00,
2013-05-07 21:56:00,55.7,48.6,30.01,SSE,160,2.0,4.0,77,0.00,,---,0.03,VWS V14.00,2013-05-08 04:56:00,
2013-05-07 22:01:00,55.5,48.4,30.01,South,187,1.0,4.0,77,0.00,,---,0.03,VWS V14.00,2013-05-08 05:01:00,
2013-05-07 22:06:00,55.3,48.2,30.02,South,175,2.0,4.0,77,0.00,,---,0.03,VWS V14.00,2013-05-08 05:06:00,
2013-05-07 22:11:00,55.2,48.5,30.02,SSW,200,0.0,4.0,78,0.00,,---,0.03,VWS V14.00,2013-05-08 05:11:00,
2013-05-07 22:16:00,55.0,48.3,30.02,SSW,200,2.0,4.0,78,0.00,,---,0.03,VWS V14.00,2013-05-08 05:16:00,
2013-05-07 22:21:00,54.9,48.2,30.02,South,191,0.0,4.0,78,0.00,,---,0.03,VWS V14.00,2013-05-08 05:21:00,
2013-05-07 22:26:00,54.7,47.6,30.02,South,191,0.0,4.0,77,0.00,,---,0.03,VWS V14.00,2013-05-08 05:26:00,
2013-05-07 22:31:00,54.5,48.1,30.02,South,191,0.0,4.0,79,0.00,,---,0.03,VWS V14.00,2013-05-08 05:31:00,
2013-05-07 22:36:00,54.4,48.0,30.02,South,191,1.0,2.0,79,0.00,,---,0.03,VWS V14.00,2013-05-08 05:36:00,
2013-05-07 22:41:00,54.2,47.8,30.03,South,191,0.0,2.0,79,0.00,,---,0.03,VWS V14.00,2013-05-08 05:41:00,
2013-05-07 22:46:00,54.2,48.5,30.03,South,191,0.0,2.0,81,0.00,,---,0.03,VWS V14.00,2013-05-08 05:46:00,
2013-05-07 22:52:00,54.2,48.2,30.03,South,180,1.0,2.0,80,0.00,,---,0.03,VWS V14.00,2013-05-08 05:52:00,
2013-05-07 22:57:00,54.0,48.0,30.03,SSE,155,0.0,2.0,80,0.00,,---,0.03,VWS V14.00,2013-05-08 05:57:00,
2013-05-07 23:02:00,53.8,48.4,30.03,SSE,155,0.0,2.0,82,0.00,,---,0.03,VWS V14.00,2013-05-08 06:02:00,
2013-05-07 23:07:00,53.7,48.3,30.03,SSE,155,1.0,2.0,82,0.00,,---,0.03,VWS V14.00,2013-05-08 06:07:00,
2013-05-07 23:12:00,53.6,48.2,30.04,SE,142,1.0,2.0,82,0.00,,---,0.03,VWS V14.00,2013-05-08 06:12:00,
2013-05-07 23:17:00,53.6,48.6,30.04,SSE,152,1.0,2.0,83,0.00,,---,0.03,VWS V14.00,2013-05-08 06:17:00,
2013-05-07 23:22:00,53.5,48.2,30.04,ESE,121,5.0,5.0,82,0.00,,---,0.03,VWS V14.00,2013-05-08 06:22:00,
2013-05-07 23:27:00,53.3,48.6,30.04,SSE,162,0.0,6.0,84,0.00,,---,0.03,VWS V14.00,2013-05-08 06:27:00,
2013-05-07 23:32:00,53.2,48.5,30.04,SSE,162,0.0,6.0,84,0.00,,---,0.03,VWS V14.00,2013-05-08 06:32:00,
2013-05-07 23:37:00,53.1,48.4,30.04,SSE,159,1.0,2.0,84,0.00,,---,0.03,VWS V14.00,2013-05-08 06:37:00,
2013-05-07 23:42:00,53.0,48.3,30.04,SSE,159,1.0,2.0,84,0.00,,---,0.03,VWS V14.00,2013-05-08 06:42:00,
2013-05-07 23:47:00,52.9,48.5,30.04,SSE,159,1.0,2.0,85,0.00,,---,0.03,VWS V14.00,2013-05-08 06:47:00,
2013-05-07 23:52:00,52.7,48.3,30.05,SSE,160,4.0,4.0,85,0.00,,---,0.03,VWS V14.00,2013-05-08 06:52:00,
2013-05-07 23:57:00,52.4,47.7,30.05,SSE,159,2.0,4.0,84,0.00,,---,0.03,VWS V14.00,2013-05-08 06:57:00,